SCP
0 0 0 0 0 0 0 0 0 0 0 0 0 0 0 0 0 0 0 0 0 0 0 0 0 0 0 0 0 0 0 0 0 0 0 0 0 0 0 0 0 0 0 0
0 0 0 0 0 0 0 0 0 0 0 0 0 -0 0 0 0 0 0 0 0 0 0 0 0 0 0 0 0 0 0 0 0 0 0 0 0 0 0 0 0 0 0 0
0 0 0 0 0 0 0 0 0 0 0 0 0 -0 -0 -0 0 0 0 0 0 0 0 0 0 0 0 0 0 0 0 0 0 0 0 0 0 0 0 0 0 0 0 0
0 0 0 0 0 0 0 0 0 0 0 0 0 0 0 0 0 0 0 0 0 0 0 0 0 0 0 0 0 0 0 0 0 0 0 0 0 0 0 0 0 0 0 0
0 0 0 0 0 0 0 0 0 0 0 0 0 0 0 0 0 0 0 0 0 0 0 0 0 0 0 0 0 0 0 0 0 0 0 0 0 0 0 0 0 0 0 0
0 0 0 0 0 0 0 0 0 0 0 0 0 0 -0 0 -0 -0 0 0 0 0 0 0 0 0 0 0 0 0 0 0 0 0 0 0 0 0 0 0 0 0 0 0
0 0 0 0 0 0 0 0 0 0 0 0 0 0 0 0 0 0 0 0 0 0 0 0 0 0 0 0 0 0 0 0 0 0 0 0 0 0 0 0 0 0 0 0
0 0 0 0 0 0 0 0 0 0 0 0 0 0 0 -0 -0 0 0 0 0 0 0 0 0 0 0 0 0 0 0 0 0 0 0 0 0 0 0 0 0 0 0 0
0 0 0 0 0 0 0 0 0 0 0 0 0 0 0 0 0 0 0 0 0 0 0 0 0 0 0 0 0 0 0 0 0 0 0 0 0 0 0 0 0 0 0 0
0 0 0 0 0 0 0 0 0 0 0 0 0 0 0 0 0 -0 0 0 0 0 0 0 0 0 0 0 0 0 0 0 0 0 0 0 0 0 0 0 0 0 0 0
0 0 0 0 0 0 0 0 0 0 0 0 0 0 0 0 0 0 0 0 -0 0 0 0 0 0 0 0 0 0 0 0 0 0 0 0 0 0 0 0 0 0 0 0
0 0 0 0 0 0 0 0 0 0 0 0 0 0 0 0 0 -0 -0 -0 -0 0 0 0 0 0 0 0 0 0 0 0 0 0 0 0 0 0 0 0 0 0 0 0
0 0 0 0 0 0 0 0 0 0 0 0 0 0 0 0 0 -0 -0 -0 -0 0 0 0 0 0 0 0 0 0 0 0 0 0 0 0 0 0 0 0 0 0 0 0
0 0 0 0 0 0 0 0 -0 0 0 0 0 -0 -0 -0 -0 -0 -0 -0 -0 0 0 0 0 0 0 0 0 0 0 0 0 0 0 0 0 0 0 0 0 0 0 0
0 0 0 -0 -0 -0 -0 0 0 -0 -0 -0 -0 -0 -0 0 0 -0 -0 -0 0 0 0 0 0 0 0 0 0 0 0 0 0 0 0 0 0 0 0 0 0 0 0 0
0 0 0 -0 -0 -0 -0 -0 -0 -0 -0 -0 -0 -0 0 0 0 -0 -0 -0 0 0 0 0 0 0 0 0 0 0 0 0 0 0 0 0 0 0 0 0 0 0 0 0
0 0 0 -0 0 0 0 -0 -0 -0 -0 -0 -0 -0 0 -0 0 -0 -0 0 0 0 0 0 0 0 0 0 0 0 0 0 0 0 0 0 0 0 0 0 0 0 0 0
-0 0 0 0 0 0 0 0 -0 -0 -0 -0 -0 0 0 0 0 0 0 0 0 0 0 0 0 0 0 0 0 0 0 0 0 0 0 0 0 0 0 0 0 0 0 0
-0 0 0 0 0 0 0 0 0 0 0 -0 0 0 0 0 0 0 0 0 0 0 0 0 0 0 0 0 0 0 0 0 0 0 0 0 0 0 0 0 0 0 0 0
-0 -0 0 0 0 0 0 0 0 0 0 0 0 0 0 0 0 0 0 0 0 0 0 0 0 0 0 0 0 0 0 0 0 0 0 0 0 0 0 0 0 0 0 0
0 -0 -0 -0 0 0 0 0 0 0 0 0 0 0 0 0 0 0 0 0 0 0 0 0 0 0 -0 -0 -0 -0 0 0 0 0 0 0 0 0 0 0 0 0 0 0
-0 0 -0 0 0 -0 0 0 0 0 0 0 0 0 0 0 0 0 0 -0 0 -0 -0 -0 -0 -0 0 -0 -0 -0 0 0 0 0 0 0 0 0 0 0 0 0 0 0
0 -0 -0 -0 -0 0 -0 -0 0 0 -0 0 0 -0 -0 -0 -0 -0 0 -0 -0 -0 0 -0 -0 -0 0 0 0 -0 0 0 0 0 0 0 0 0 0 0 0 0 0 0
0 0 0 0 0 0 -0 -0 0 -0 0 0 -0 0 0 -0 -0 -0 -0 0 -0 -0 -0 -0 -0 -0 -0 0 0 0 0 0 0 0 0 0 0 0 0 0 0 0 0 0
0 0 0 0 0 0 -0 -0 -0 0 0 -0 -0 -0 -0 -0 -0 -0 0 -0 -0 -0 -0 -0 -0 -0 0 0 0 0 0 0 0 0 0 0 0 0 0 0 0 0 0 0
0 0 0 0 0 0 -0 0 -0 -0 -0 -0 -0 -0 -0 -0 -0 -0 -0 -0 -0 -0 -0 -0 -0 -0 -0 0 0 0 0 0 0 0 0 0 0 0 0 0 0 0 0 0
Wind_Speed_500mb
8 10 17 21 12 7 3 7 21 14 17 21 30 43 38 47 48 49 54 57 57 69 65 52 50 56 55 52 49 51 49 51 50 52 67 71 67 60 52 48 48 44 37 21
6 21 18 17 10 21 21 26 30 22 17 23 28 54 37 37 47 56 62 60 65 76 72 71 63 56 50 48 48 48 50 48 47 54 69 76 72 59 55 54 52 44 34 22
11 8 10 16 10 24 20 27 25 33 19 28 34 49 31 31 54 61 68 72 70 70 74 80 72 66 56 50 51 50 52 46 46 53 69 74 66 61 63 59 53 42 32 25
12 19 8 9 16 20 33 13 20 21 12 15 3 20 15 15 29 27 33 50 64 75 77 81 79 69 60 52 50 50 49 46 45 53 68 75 71 66 66 61 50 37 28 29
7 11 9 23 24 17 14 9 13 16 16 23 27 14 14 2 9 16 21 50 57 67 71 71 78 71 59 55 53 53 50 46 48 57 67 74 68 64 66 60 50 44 38 34
13 8 10 15 14 28 2 5 9 6 11 19 21 21 40 13 15 10 18 41 52 56 57 55 64 69 65 59 57 54 51 51 53 59 68 72 65 61 64 58 49 43 39 35
6 29 12 10 9 6 23 5 5 8 12 15 10 21 39 18 31 30 26 38 57 54 51 60 67 61 70 64 61 58 54 53 58 62 67 69 63 60 51 47 49 48 44 35
8 8 21 18 26 13 28 21 11 11 10 7 4 17 15 28 36 42 43 56 65 65 55 47 50 56 68 68 64 61 56 55 58 64 67 69 71 56 54 52 46 45 39 30
6 8 4 13 6 23 10 20 20 17 25 18 17 25 21 27 19 6 20 31 42 56 56 54 49 53 68 73 69 66 61 58 61 62 65 71 61 52 53 50 50 44 35 25
2 9 6 2 12 20 19 2 8 11 11 17 11 12 20 10 9 7 17 33 45 50 42 51 44 51 66 74 74 68 61 62 63 63 64 61 54 56 54 53 48 38 29 21
9 7 5 8 19 20 15 15 14 7 9 10 13 15 13 12 11 7 19 39 47 61 41 48 54 54 67 77 77 72 67 67 69 65 62 60 59 57 54 47 40 31 23 18
15 7 9 21 20 31 37 38 33 14 21 10 8 37 8 12 8 10 21 39 54 55 34 35 52 56 65 76 76 73 73 71 68 66 63 61 62 58 50 42 34 26 20 15
16 8 9 11 4 12 20 36 38 23 7 27 12 22 7 5 11 17 20 36 51 41 20 26 44 54 64 74 77 76 74 71 67 65 64 64 60 53 45 36 28 23 17 13
27 8 14 18 30 18 17 28 37 37 15 35 38 42 30 30 26 21 19 36 43 32 16 21 36 49 64 77 80 79 75 68 66 63 62 59 53 46 38 31 25 19 14 12
17 14 20 38 51 47 47 49 34 40 48 22 37 42 31 27 24 5 15 31 37 32 19 26 39 54 68 75 76 75 71 65 63 61 57 52 46 40 33 27 21 17 12 11
10 10 8 41 43 45 38 32 30 40 41 47 46 53 24 15 14 5 18 32 42 35 30 30 40 57 72 75 75 72 69 66 62 57 52 47 41 35 29 23 19 14 10 11
8 6 6 25 21 34 10 10 18 21 32 28 34 34 4 11 20 26 32 47 52 43 37 38 47 65 74 73 70 70 68 63 58 52 48 42 36 30 25 20 15 9 8 13
12 5 5 15 18 7 5 5 15 30 28 35 36 26 13 14 28 52 63 56 38 33 38 42 53 68 69 67 66 65 62 60 55 50 44 37 31 26 21 17 10 5 10 14
25 12 8 8 13 15 2 11 2 8 12 35 36 34 31 33 19 30 21 14 7 26 33 42 57 64 64 63 63 61 59 54 51 46 38 32 26 22 18 11 6 7 11 17
10 22 5 6 8 7 5 8 5 10 6 11 24 24 14 13 4 5 11 6 16 24 34 47 55 59 60 63 60 57 57 54 47 40 34 28 24 17 11 7 6 8 14 20
7 6 16 13 8 13 10 11 4 5 7 12 9 18 17 6 6 6 12 22 25 30 38 46 51 56 58 59 57 56 53 48 42 36 30 26 20 13 8 5 6 12 18 25
11 10 7 5 5 12 3 4 4 6 19 17 15 5 26 23 23 20 25 33 37 42 46 49 55 58 59 58 57 55 50 44 38 32 26 21 15 10 6 4 9 16 23 30
5 10 5 12 10 8 8 14 17 19 22 21 16 4 33 32 24 30 38 39 43 44 48 51 55 61 59 56 50 51 46 40 34 27 22 18 12 7 4 7 14 21 29 34
6 6 5 5 7 11 17 10 13 21 13 13 3 11 24 25 25 32 36 39 40 39 43 49 57 62 61 51 46 38 41 34 27 24 20 14 9 5 5 12 20 27 32 35
6 7 7 9 15 20 29 24 10 9 12 16 20 24 30 34 37 41 43 43 44 46 50 54 59 60 57 51 44 37 33 29 26 20 15 11 8 4 9 17 23 29 33 37
11 12 8 9 7 5 6 3 3 5 13 19 30 41 37 40 49 46 49 47 49 54 56 58 56 56 56 47 41 37 30 23 16 15 14 9 3 8 14 21 25 28 30 34
Wind_Direction_500mb
161 209 210 202 202 219 136 258 262 271 299 313 273 278 275 275 269 271 270 271 270 271 268 258 245 244 255 252 251 253 249 238 232 223 208 209 208 210 211 205 200 198 200 214
142 232 231 242 222 240 248 262 270 288 278 278 293 282 276 265 259 253 257 254 256 261 262 259 251 246 252 248 251 249 239 235 232 222 211 208 207 201 196 194 195 195 199 220
189 175 192 193 212 239 237 241 261 270 295 280 280 280 266 253 254 252 251 255 253 250 252 255 252 246 245 249 244 245 231 231 231 221 208 205 200 190 185 189 190 190 190 198
240 233 191 174 221 209 255 209 246 258 272 273 130 292 256 265 270 265 243 248 248 251 249 250 246 241 239 239 240 233 228 228 224 217 208 208 206 194 191 192 193 191 201 198
218 186 175 222 235 178 236 192 209 225 240 279 242 266 280 330 280 268 255 253 255 256 253 249 241 238 231 228 230 225 223 223 217 211 208 207 204 198 192 188 188 188 193 198
218 183 171 196 214 199 113 286 275 243 229 245 234 205 277 263 240 258 259 263 269 268 258 252 244 239 227 221 220 217 217 218 213 207 206 209 208 202 189 187 188 188 196 195
247 235 195 179 202 187 182 202 229 231 215 249 199 191 244 298 294 273 272 269 275 274 269 255 249 238 223 215 212 210 212 212 209 205 204 204 207 202 196 199 196 193 193 195
221 303 192 186 214 189 190 197 218 231 214 250 215 235 246 227 252 266 283 286 286 277 267 256 244 234 219 209 206 205 205 204 202 200 199 201 201 196 194 195 198 189 190 197
195 263 14 199 204 216 176 215 232 268 265 268 239 262 293 259 257 300 313 327 311 289 270 257 234 221 213 206 203 201 197 195 195 193 194 198 198 199 189 188 186 188 192 203
173 276 205 258 189 240 231 191 180 197 248 243 247 248 235 277 263 311 341 343 340 332 286 247 229 217 209 204 198 194 191 188 184 186 193 193 190 184 187 185 186 190 196 209
142 187 229 139 206 212 197 222 213 249 217 252 272 257 211 218 152 9 342 349 345 339 305 255 227 214 204 202 195 187 183 182 180 187 188 185 180 183 183 185 188 194 204 222
185 222 249 229 217 204 219 223 216 229 217 214 236 260 157 148 165 55 3 349 356 342 319 249 220 204 200 195 187 182 179 179 181 183 181 180 179 180 183 186 191 199 213 230
166 214 295 292 8 230 229 224 220 234 242 228 231 257 228 201 18 26 1 351 360 339 302 222 203 197 192 185 182 179 177 179 179 179 178 175 176 178 183 188 195 206 219 242
172 210 218 252 265 255 247 233 224 221 235 246 234 262 267 295 301 324 354 352 348 318 277 209 193 189 184 179 177 177 175 176 174 174 175 174 175 178 183 191 200 209 227 255
178 252 238 252 261 271 267 267 237 214 230 229 254 248 262 253 261 278 332 321 324 290 243 205 188 181 177 174 174 173 171 170 172 173 174 174 174 179 186 193 202 216 238 271
202 264 267 274 270 268 269 274 235 220 228 239 254 264 265 276 203 225 330 322 290 278 239 208 193 179 172 171 170 169 169 168 171 173 174 176 177 181 187 196 208 224 254 297
208 239 276 286 319 301 262 262 209 215 219 225 238 247 268 292 281 300 295 265 265 248 223 205 192 178 172 171 171 168 166 167 169 174 176 176 179 183 189 199 211 233 288 312
240 207 249 288 308 295 288 316 259 216 232 225 249 246 240 260 294 279 267 267 261 217 199 189 183 175 170 167 166 165 165 167 169 173 175 176 180 186 190 197 209 264 300 316
214 226 280 283 316 278 138 330 42 177 270 232 230 243 238 246 247 284 319 312 221 188 182 177 176 172 167 166 166 166 164 168 172 173 174 175 180 185 187 193 230 281 312 323
172 212 218 323 285 292 279 315 288 128 313 330 216 234 217 166 297 294 340 119 168 173 168 167 170 171 169 166 167 167 167 170 170 170 171 172 176 179 182 205 261 305 317 320
160 181 230 249 278 281 271 306 288 23 290 348 292 224 148 182 101 103 107 132 141 151 159 165 165 168 170 167 167 168 167 168 168 168 170 170 167 172 190 243 295 313 318 322
178 162 203 190 258 291 191 353 74 251 306 310 327 230 182 170 128 121 132 134 142 148 156 162 163 165 166 166 167 167 166 166 167 167 165 162 165 184 215 273 305 315 324 328
239 191 198 183 224 261 266 250 299 313 296 306 314 165 172 155 145 140 131 132 134 141 149 155 159 157 159 163 168 165 165 166 165 161 159 167 179 189 225 296 317 326 327 329
243 180 215 358 290 256 289 323 298 325 333 348 111 142 165 154 139 129 127 125 126 134 144 152 154 151 150 156 163 170 160 159 159 161 164 170 175 196 277 316 327 328 332 335
211 150 208 261 284 287 286 275 311 350 44 80 101 121 134 141 131 129 124 127 133 140 144 149 149 143 143 152 157 154 152 154 156 161 166 169 185 249 317 324 328 335 336 337
190 199 174 230 238 176 285 260 204 108 102 102 117 116 121 129 126 132 128 132 136 139 141 143 139 142 142 148 145 143 144 150 160 163 165 176 226 311 321 331 335 334 333 334
Wind_Speed_850mb
8 10 17 21 12 7 3 7 21 14 17 21 30 43 38 47 48 49 54 57 57 69 65 52 50 56 55 52 49 51 49 51 50 52 67 71 67 60 52 48 48 44 37 21
6 21 18 17 10 21 21 26 30 22 17 23 28 54 37 37 47 56 62 60 65 76 72 71 63 56 50 48 48 48 50 48 47 54 69 76 72 59 55 54 52 44 34 22
11 8 10 16 10 24 20 27 25 33 19 28 34 49 31 31 54 61 68 72 70 70 74 80 72 66 56 50 51 50 52 46 46 53 69 74 66 61 63 59 53 42 32 25
12 19 8 9 16 20 33 13 20 21 12 15 3 20 15 15 29 27 33 50 64 75 77 81 79 69 60 52 50 50 49 46 45 53 68 75 71 66 66 61 50 37 28 29
7 11 9 23 24 17 14 9 13 16 16 23 27 14 14 2 9 16 21 50 57 67 71 71 78 71 59 55 53 53 50 46 48 57 67 74 68 64 66 60 50 44 38 34
13 8 10 15 14 28 2 5 9 6 11 19 21 21 40 13 15 10 18 41 52 56 57 55 64 69 65 59 57 54 51 51 53 59 68 72 65 61 64 58 49 43 39 35
6 29 12 10 9 6 23 5 5 8 12 15 10 21 39 18 31 30 26 38 57 54 51 60 67 61 70 64 61 58 54 53 58 62 67 69 63 60 51 47 49 48 44 35
8 8 21 18 26 13 28 21 11 11 10 7 4 17 15 28 36 42 43 56 65 65 55 47 50 56 68 68 64 61 56 55 58 64 67 69 71 56 54 52 46 45 39 30
6 8 4 13 6 23 10 20 20 17 25 18 17 25 21 27 19 6 20 31 42 56 56 54 49 53 68 73 69 66 61 58 61 62 65 71 61 52 53 50 50 44 35 25
2 9 6 2 12 20 19 2 8 11 11 17 11 12 20 10 9 7 17 33 45 50 42 51 44 51 66 74 74 68 61 62 63 63 64 61 54 56 54 53 48 38 29 21
9 7 5 8 19 20 15 15 14 7 9 10 13 15 13 12 11 7 19 39 47 61 41 48 54 54 67 77 77 72 67 67 69 65 62 60 59 57 54 47 40 31 23 18
15 7 9 21 20 31 37 38 33 14 21 10 8 37 8 12 8 10 21 39 54 55 34 35 52 56 65 76 76 73 73 71 68 66 63 61 62 58 50 42 34 26 20 15
16 8 9 11 4 12 20 36 38 23 7 27 12 22 7 5 11 17 20 36 51 41 20 26 44 54 64 74 77 76 74 71 67 65 64 64 60 53 45 36 28 23 17 13
27 8 14 18 30 18 17 28 37 37 15 35 38 42 30 30 26 21 19 36 43 32 16 21 36 49 64 77 80 79 75 68 66 63 62 59 53 46 38 31 25 19 14 12
17 14 20 38 51 47 47 49 34 40 48 22 37 42 31 27 24 5 15 31 37 32 19 26 39 54 68 75 76 75 71 65 63 61 57 52 46 40 33 27 21 17 12 11
10 10 8 41 43 45 38 32 30 40 41 47 46 53 24 15 14 5 18 32 42 35 30 30 40 57 72 75 75 72 69 66 62 57 52 47 41 35 29 23 19 14 10 11
8 6 6 25 21 34 10 10 18 21 32 28 34 34 4 11 20 26 32 47 52 43 37 38 47 65 74 73 70 70 68 63 58 52 48 42 36 30 25 20 15 9 8 13
12 5 5 15 18 7 5 5 15 30 28 35 36 26 13 14 28 52 63 56 38 33 38 42 53 68 69 67 66 65 62 60 55 50 44 37 31 26 21 17 10 5 10 14
25 12 8 8 13 15 2 11 2 8 12 35 36 34 31 33 19 30 21 14 7 26 33 42 57 64 64 63 63 61 59 54 51 46 38 32 26 22 18 11 6 7 11 17
10 22 5 6 8 7 5 8 5 10 6 11 24 24 14 13 4 5 11 6 16 24 34 47 55 59 60 63 60 57 57 54 47 40 34 28 24 17 11 7 6 8 14 20
7 6 16 13 8 13 10 11 4 5 7 12 9 18 17 6 6 6 12 22 25 30 38 46 51 56 58 59 57 56 53 48 42 36 30 26 20 13 8 5 6 12 18 25
11 10 7 5 5 12 3 4 4 6 19 17 15 5 26 23 23 20 25 33 37 42 46 49 55 58 59 58 57 55 50 44 38 32 26 21 15 10 6 4 9 16 23 30
5 10 5 12 10 8 8 14 17 19 22 21 16 4 33 32 24 30 38 39 43 44 48 51 55 61 59 56 50 51 46 40 34 27 22 18 12 7 4 7 14 21 29 34
6 6 5 5 7 11 17 10 13 21 13 13 3 11 24 25 25 32 36 39 40 39 43 49 57 62 61 51 46 38 41 34 27 24 20 14 9 5 5 12 20 27 32 35
6 7 7 9 15 20 29 24 10 9 12 16 20 24 30 34 37 41 43 43 44 46 50 54 59 60 57 51 44 37 33 29 26 20 15 11 8 4 9 17 23 29 33 37
11 12 8 9 7 5 6 3 3 5 13 19 30 41 37 40 49 46 49 47 49 54 56 58 56 56 56 47 41 37 30 23 16 15 14 9 3 8 14 21 25 28 30 34
Wind_Direction_850mb
161 209 210 202 202 219 136 258 262 271 299 313 273 278 275 275 269 271 270 271 270 271 268 258 245 244 255 252 251 253 249 238 232 223 208 209 208 210 211 205 200 198 200 214
142 232 231 242 222 240 248 262 270 288 278 278 293 282 276 265 259 253 257 254 256 261 262 259 251 246 252 248 251 249 239 235 232 222 211 208 207 201 196 194 195 195 199 220
189 175 192 193 212 239 237 241 261 270 295 280 280 280 266 253 254 252 251 255 253 250 252 255 252 246 245 249 244 245 231 231 231 221 208 205 200 190 185 189 190 190 190 198
240 233 191 174 221 209 255 209 246 258 272 273 130 292 256 265 270 265 243 248 248 251 249 250 246 241 239 239 240 233 228 228 224 217 208 208 206 194 191 192 193 191 201 198
218 186 175 222 235 178 236 192 209 225 240 279 242 266 280 330 280 268 255 253 255 256 253 249 241 238 231 228 230 225 223 223 217 211 208 207 204 198 192 188 188 188 193 198
218 183 171 196 214 199 113 286 275 243 229 245 234 205 277 263 240 258 259 263 269 268 258 252 244 239 227 221 220 217 217 218 213 207 206 209 208 202 189 187 188 188 196 195
247 235 195 179 202 187 182 202 229 231 215 249 199 191 244 298 294 273 272 269 275 274 269 255 249 238 223 215 212 210 212 212 209 205 204 204 207 202 196 199 196 193 193 195
221 303 192 186 214 189 190 197 218 231 214 250 215 235 246 227 252 266 283 286 286 277 267 256 244 234 219 209 206 205 205 204 202 200 199 201 201 196 194 195 198 189 190 197
195 263 14 199 204 216 176 215 232 268 265 268 239 262 293 259 257 300 313 327 311 289 270 257 234 221 213 206 203 201 197 195 195 193 194 198 198 199 189 188 186 188 192 203
173 276 205 258 189 240 231 191 180 197 248 243 247 248 235 277 263 311 341 343 340 332 286 247 229 217 209 204 198 194 191 188 184 186 193 193 190 184 187 185 186 190 196 209
142 187 229 139 206 212 197 222 213 249 217 252 272 257 211 218 152 9 342 349 345 339 305 255 227 214 204 202 195 187 183 182 180 187 188 185 180 183 183 185 188 194 204 222
185 222 249 229 217 204 219 223 216 229 217 214 236 260 157 148 165 55 3 349 356 342 319 249 220 204 200 195 187 182 179 179 181 183 181 180 179 180 183 186 191 199 213 230
166 214 295 292 8 230 229 224 220 234 242 228 231 257 228 201 18 26 1 351 360 339 302 222 203 197 192 185 182 179 177 179 179 179 178 175 176 178 183 188 195 206 219 242
172 210 218 252 265 255 247 233 224 221 235 246 234 262 267 295 301 324 354 352 348 318 277 209 193 189 184 179 177 177 175 176 174 174 175 174 175 178 183 191 200 209 227 255
178 252 238 252 261 271 267 267 237 214 230 229 254 248 262 253 261 278 332 321 324 290 243 205 188 181 177 174 174 173 171 170 172 173 174 174 174 179 186 193 202 216 238 271
202 264 267 274 270 268 269 274 235 220 228 239 254 264 265 276 203 225 330 322 290 278 239 208 193 179 172 171 170 169 169 168 171 173 174 176 177 181 187 196 208 224 254 297
208 239 276 286 319 301 262 262 209 215 219 225 238 247 268 292 281 300 295 265 265 248 223 205 192 178 172 171 171 168 166 167 169 174 176 176 179 183 189 199 211 233 288 312
240 207 249 288 308 295 288 316 259 216 232 225 249 246 240 260 294 279 267 267 261 217 199 189 183 175 170 167 166 165 165 167 169 173 175 176 180 186 190 197 209 264 300 316
214 226 280 283 316 278 138 330 42 177 270 232 230 243 238 246 247 284 319 312 221 188 182 177 176 172 167 166 166 166 164 168 172 173 174 175 180 185 187 193 230 281 312 323
172 212 218 323 285 292 279 315 288 128 313 330 216 234 217 166 297 294 340 119 168 173 168 167 170 171 169 166 167 167 167 170 170 170 171 172 176 179 182 205 261 305 317 320
160 181 230 249 278 281 271 306 288 23 290 348 292 224 148 182 101 103 107 132 141 151 159 165 165 168 170 167 167 168 167 168 168 168 170 170 167 172 190 243 295 313 318 322
178 162 203 190 258 291 191 353 74 251 306 310 327 230 182 170 128 121 132 134 142 148 156 162 163 165 166 166 167 167 166 166 167 167 165 162 165 184 215 273 305 315 324 328
239 191 198 183 224 261 266 250 299 313 296 306 314 165 172 155 145 140 131 132 134 141 149 155 159 157 159 163 168 165 165 166 165 161 159 167 179 189 225 296 317 326 327 329
243 180 215 358 290 256 289 323 298 325 333 348 111 142 165 154 139 129 127 125 126 134 144 152 154 151 150 156 163 170 160 159 159 161 164 170 175 196 277 316 327 328 332 335
211 150 208 261 284 287 286 275 311 350 44 80 101 121 134 141 131 129 124 127 133 140 144 149 149 143 143 152 157 154 152 154 156 161 166 169 185 249 317 324 328 335 336 337
190 199 174 230 238 176 285 260 204 108 102 102 117 116 121 129 126 132 128 132 136 139 141 143 139 142 142 148 145 143 144 150 160 163 165 176 226 311 321 331 335 334 333 334